Погода в Убуде

Индонезия     8°30′21″S   115°15′36″E
темп.,
°C
ветер,
м/с
пор.,
м/с
влажн.,
%
обл.,
%
осадки,
мм/ч
давл.,
гПа
погр.,
м
2 марта, вт
вт223:00+22с22905 0.0 101127
02:00+22с128747 0.0 101026
05:00+22с128455 0.0 100825
08:00+26ссв117127 0.0 101079
11:00+32ю23490 0.0 10101188
14:00+31ююз23579 1.3 10081041
17:00+27юз238431 2.8 1007379
20:00+23с119318 3.7 101024
3 марта, ср
ср323:00+22с22920 0.1 101229
02:00+22с129014 0.1 100926
05:00+22с22890 0.0 100931
08:00+25ссв11778 0.0 101180
11:00+31ююз335424 0.1 10111175
14:00+31ю335113 1.1 10081251
17:00+28ю226472 0.6 1008686
20:00+23ссв018884 2.1 101024
4 марта, чт
чт423:00+23с128327 0.1 101231
02:00+22с228451 0.1 101033
05:00+22с128197 0.0 101025
08:00+25с117189 0.0 101175
11:00+31юз345382 0.0 10111245
14:00+31юз465191 0.1 10091281
17:00+26юз2588100 2.7 1008369
20:00+23ссз1295100 4.5 101136
5 марта, пт
пт523:00+22ссз2490100 0.1 1011109
02:00+22ссз2793100 0.3 1010238
05:00+22зсз1597100 4.2 1010237
08:00+22юз1399100 13.4 1011193
11:00+23с1394100 1.8 1012158
14:00+28юз3464100 1.9 10091113
17:00+26юз2378100 0.3 1008763
20:00+22с1194100 0.4 101026
6 марта, сб
сб623:00+22с1291100 0.0 101026
02:00+22с1285100 0.0 100926
05:00+22ссв1182100 0.0 100924
08:00+24ссв1177100 0.0 101073
11:00+30ю2255100 0.1 10101108
14:00+28ююз227898 3.1 1008861
17:00+26ююв118897 4.9 1008112
20:00+23ссз119498 5.8 101025